TURKMENALEM 52E/MONACOSA

导读

TURKMENALEM 52E(别称MONACOSA)是一颗由土库曼斯坦和摩纳哥合作(TMMC)发射的通信卫星,于北京时间2015年4月27日8时成功发射入轨,定点在东经52度的地球静止轨道。该卫星主要为土库曼斯坦及周边区域提供通信、广播等服务,助力区域通信网络覆盖与数字服务发展,是土库曼斯坦早期航天合作的典型成果之一,稳定运行至今支撑区域通信需求。

Basic Information
目录编号:
40617
目录名称:
TURKMENALEM 52E/MONACOSA
国际标识:
2015-023A
轨道中心:
EARTH
卫星名称:
TURKMENALEM 52E/MONACOSA
卫星全名:
--
卫星状态:
在轨 (已飞行4069 天)
发射日期:
2015-04-27 UTC
国别 :
(TMMC)
星等 :
--
Orbit Information
数据来源 国际轨道数据 AOE轨道数据
星历时间 2026-06-17T06:20:56+0800
10小时前
查看轨道信息
2026-06-17T03:00:00+0800
13小时前
查看轨道信息
半长轴 42165.037km 42164.981km
偏心率 0.0002659 0.0002569
轨道倾角 0.037° 0.036°
近地点辐角 4.023° 357.865°
升交点赤经 75.305° 78.699°
平近点角 213.103° 165.496°
近地点 35775.688km 35776.011km
远地点 35798.112km 35797.677km
周期 1436.112分钟 1436.110分钟
每日圈数 1.002707 1.002709
Detailed Information
使用方式:
暂无
2D Orbit Map
3D Orbit Map
Orbit Altitude Analysis Chart
Orbit Inclination Analysis Chart
Orbit Comprehensive Analysis Chart
View Comprehensive Chart